Time,TemperatureF,DewpointF,PressureIn,WindDirection,WindDirectionDegrees,WindSpeedMPH,WindSpeedGustMPH,Humidity,HourlyPrecipIn,Conditions,Clouds,dailyrainin,SoftwareType,DateUTC
2013-08-21 00:00:00,67.2,66.0,30.11,North,360,0.0,0.0,96,0.00,CLR,,0.00,WeatherDisplay:10.37,2013-08-21 04:00:00,
2013-08-21 00:01:00,67.1,65.9,30.11,North,360,0.0,0.0,96,0.00,CLR,,0.00,WeatherDisplay:10.37,2013-08-21 04:01:00,
2013-08-21 00:06:00,67.0,65.8,30.11,North,360,0.0,0.0,96,0.00,SCT,,0.00,WeatherDisplay:10.37,2013-08-21 04:06:00,
2013-08-21 00:11:00,66.9,65.7,30.11,North,360,0.0,0.0,96,0.00,SCT,,0.00,WeatherDisplay:10.37,2013-08-21 04:11:00,
2013-08-21 00:16:00,66.7,65.5,30.11,North,360,0.0,0.0,96,0.00,SCT,,0.00,WeatherDisplay:10.37,2013-08-21 04:16:00,
2013-08-21 00:21:00,66.6,65.4,30.11,North,360,0.0,0.0,96,0.00,SCT,,0.00,WeatherDisplay:10.37,2013-08-21 04:21:00,
2013-08-21 00:26:00,66.5,65.3,30.11,North,360,0.0,0.0,96,0.00,SCT,,0.00,WeatherDisplay:10.37,2013-08-21 04:26:00,
2013-08-21 00:31:00,66.3,65.1,30.11,North,360,0.0,0.0,96,0.00,SCT,,0.00,WeatherDisplay:10.37,2013-08-21 04:31:00,
2013-08-21 00:36:00,66.2,65.0,30.11,North,360,0.0,0.0,96,0.00,SCT,,0.00,WeatherDisplay:10.37,2013-08-21 04:36:00,
2013-08-21 00:41:00,66.2,65.3,30.11,North,360,0.0,0.0,97,0.00,SCT,,0.00,WeatherDisplay:10.37,2013-08-21 04:41:00,
2013-08-21 00:46:00,66.2,65.3,30.11,North,360,0.0,0.0,97,0.00,SCT,,0.00,WeatherDisplay:10.37,2013-08-21 04:46:00,
2013-08-21 00:51:00,66.1,65.2,30.11,North,360,0.0,0.0,97,0.00,SCT,,0.00,WeatherDisplay:10.37,2013-08-21 04:51:00,
2013-08-21 00:56:00,66.1,65.2,30.11,North,360,0.0,0.0,97,0.00,SCT,,0.00,WeatherDisplay:10.37,2013-08-21 04:56:00,
2013-08-21 01:01:00,66.0,65.1,30.11,North,360,0.0,0.0,97,0.00,SCT,,0.00,WeatherDisplay:10.37,2013-08-21 05:01:00,
2013-08-21 01:06:00,65.9,65.0,30.11,North,360,0.0,0.0,97,0.00,SCT,,0.00,WeatherDisplay:10.37,2013-08-21 05:06:00,
2013-08-21 01:11:00,65.7,64.8,30.11,North,360,0.0,0.0,97,0.00,SCT,,0.00,WeatherDisplay:10.37,2013-08-21 05:11:00,
2013-08-21 01:16:00,65.6,64.7,30.11,North,360,0.0,0.0,97,0.00,SCT,,0.00,WeatherDisplay:10.37,2013-08-21 05:16:00,
2013-08-21 01:21:00,65.4,64.5,30.11,North,360,0.0,0.0,97,0.00,SCT,,0.00,WeatherDisplay:10.37,2013-08-21 05:21:00,
2013-08-21 01:26:00,65.2,64.3,30.11,North,360,0.0,0.0,97,0.00,SCT,,0.00,WeatherDisplay:10.37,2013-08-21 05:26:00,
2013-08-21 01:31:00,65.0,64.1,30.11,North,360,0.0,0.0,97,0.00,SCT,,0.00,WeatherDisplay:10.37,2013-08-21 05:31:00,
2013-08-21 01:36:00,64.9,64.0,30.11,North,360,0.0,0.0,97,0.00,SCT,,0.00,WeatherDisplay:10.37,2013-08-21 05:36:00,
2013-08-21 01:41:00,65.0,64.4,30.11,North,360,0.0,0.0,98,0.00,SCT,,0.00,WeatherDisplay:10.37,2013-08-21 05:41:00,
2013-08-21 01:46:00,64.9,64.3,30.11,North,360,0.0,0.0,98,0.00,SCT,,0.00,WeatherDisplay:10.37,2013-08-21 05:46:00,
2013-08-21 01:51:00,64.8,64.2,30.11,North,360,0.0,0.0,98,0.00,SCT,,0.00,WeatherDisplay:10.37,2013-08-21 05:51:00,
2013-08-21 01:56:00,64.7,64.1,30.11,North,360,0.0,0.0,98,0.00,SCT,,0.00,WeatherDisplay:10.37,2013-08-21 05:56:00,
2013-08-21 02:01:00,64.6,64.0,30.11,North,360,0.0,0.0,98,0.00,CLR,,0.00,WeatherDisplay:10.37,2013-08-21 06:01:00,
2013-08-21 02:06:00,64.6,64.0,30.11,North,360,0.0,0.0,98,0.00,CLR,,0.00,WeatherDisplay:10.37,2013-08-21 06:06:00,
2013-08-21 02:11:00,64.4,63.8,30.11,North,360,0.0,0.0,98,0.00,CLR,,0.00,WeatherDisplay:10.37,2013-08-21 06:11:00,
2013-08-21 02:16:00,64.3,63.7,30.11,North,360,0.0,0.0,98,0.00,CLR,,0.00,WeatherDisplay:10.37,2013-08-21 06:16:00,
2013-08-21 02:21:00,64.1,63.5,30.11,North,360,0.0,0.0,98,0.00,CLR,,0.00,WeatherDisplay:10.37,2013-08-21 06:21:00,
2013-08-21 02:26:00,64.1,63.5,30.11,North,360,0.0,0.0,98,0.00,CLR,,0.00,WeatherDisplay:10.37,2013-08-21 06:26:00,
2013-08-21 02:31:00,64.1,63.5,30.11,North,360,0.0,0.0,98,0.00,CLR,,0.00,WeatherDisplay:10.37,2013-08-21 06:31:00,
2013-08-21 02:36:00,64.0,63.4,30.11,North,360,0.0,0.0,98,0.00,CLR,,0.00,WeatherDisplay:10.37,2013-08-21 06:36:00,
2013-08-21 02:41:00,63.9,63.3,30.11,North,360,0.0,0.0,98,0.00,CLR,,0.00,WeatherDisplay:10.37,2013-08-21 06:41:00,
2013-08-21 02:46:00,63.7,63.1,30.11,North,360,0.0,0.0,98,0.00,CLR,,0.00,WeatherDisplay:10.37,2013-08-21 06:46:00,
2013-08-21 02:51:00,63.5,63.2,30.11,North,360,0.0,0.0,99,0.00,CLR,,0.00,WeatherDisplay:10.37,2013-08-21 06:51:00,
2013-08-21 02:56:00,63.5,63.2,30.11,North,360,0.0,0.0,99,0.00,CLR,,0.00,WeatherDisplay:10.37,2013-08-21 06:56:00,
2013-08-21 03:01:00,63.5,63.5,30.11,North,360,0.0,0.0,100,0.00,CLR,,0.00,WeatherDisplay:10.37,2013-08-21 07:01:00,
2013-08-21 03:06:00,63.3,63.0,30.11,North,360,0.0,0.0,99,0.00,CLR,,0.00,WeatherDisplay:10.37,2013-08-21 07:06:00,
2013-08-21 03:11:00,63.2,62.9,30.11,North,360,0.0,0.0,99,0.00,CLR,,0.00,WeatherDisplay:10.37,2013-08-21 07:11:00,
2013-08-21 03:16:00,63.0,62.7,30.11,North,360,0.0,0.0,99,0.00,CLR,,0.00,WeatherDisplay:10.37,2013-08-21 07:16:00,
2013-08-21 03:21:00,62.9,62.6,30.12,North,360,0.0,0.0,99,0.00,CLR,,0.00,WeatherDisplay:10.37,2013-08-21 07:21:00,
2013-08-21 03:26:00,62.9,62.6,30.12,North,360,0.0,0.0,99,0.00,CLR,,0.00,WeatherDisplay:10.37,2013-08-21 07:26:00,
2013-08-21 03:31:00,62.7,62.4,30.11,North,360,0.0,0.0,99,0.00,CLR,,0.00,WeatherDisplay:10.37,2013-08-21 07:31:00,
2013-08-21 03:36:00,62.5,62.2,30.11,North,360,0.0,0.0,99,0.00,CLR,,0.00,WeatherDisplay:10.37,2013-08-21 07:36:00,
2013-08-21 03:41:00,62.4,62.1,30.11,North,360,0.0,0.0,99,0.00,CLR,,0.00,WeatherDisplay:10.37,2013-08-21 07:41:00,
2013-08-21 03:46:00,62.2,61.9,30.12,North,360,0.0,0.0,99,0.00,CLR,,0.00,WeatherDisplay:10.37,2013-08-21 07:46:00,
2013-08-21 03:51:00,62.1,61.8,30.12,North,360,0.0,0.0,99,0.00,CLR,,0.00,WeatherDisplay:10.37,2013-08-21 07:51:00,
2013-08-21 03:56:00,62.1,61.8,30.12,North,360,0.0,0.0,99,0.00,CLR,,0.00,WeatherDisplay:10.37,2013-08-21 07:56:00,
2013-08-21 04:01:00,62.1,61.8,30.12,North,360,0.0,0.0,99,0.00,CLR,,0.00,WeatherDisplay:10.37,2013-08-21 08:01:00,
2013-08-21 04:06:00,62.0,61.7,30.12,North,360,0.0,0.0,99,0.00,CLR,,0.00,WeatherDisplay:10.37,2013-08-21 08:06:00,
2013-08-21 04:11:00,61.9,61.6,30.12,North,360,0.0,0.0,99,0.00,CLR,,0.00,WeatherDisplay:10.37,2013-08-21 08:11:00,
2013-08-21 04:16:00,61.8,61.5,30.12,North,360,0.0,0.0,99,0.00,CLR,,0.00,WeatherDisplay:10.37,2013-08-21 08:16:00,
2013-08-21 04:21:00,61.7,61.4,30.12,North,360,0.0,0.0,99,0.00,CLR,,0.00,WeatherDisplay:10.37,2013-08-21 08:21:00,
2013-08-21 04:26:00,61.6,61.3,30.12,North,360,0.0,0.0,99,0.00,CLR,,0.00,WeatherDisplay:10.37,2013-08-21 08:26:00,
2013-08-21 04:31:00,61.4,61.1,30.12,North,360,0.0,0.0,99,0.00,CLR,,0.00,WeatherDisplay:10.37,2013-08-21 08:31:00,
2013-08-21 04:36:00,61.2,60.9,30.12,North,360,0.0,0.0,99,0.00,CLR,,0.00,WeatherDisplay:10.37,2013-08-21 08:36:00,
2013-08-21 04:41:00,61.2,60.9,30.12,North,360,0.0,0.0,99,0.00,CLR,,0.00,WeatherDisplay:10.37,2013-08-21 08:41:00,
2013-08-21 04:46:00,61.1,60.8,30.12,North,360,0.0,0.0,99,0.00,CLR,,0.00,WeatherDisplay:10.37,2013-08-21 08:46:00,
2013-08-21 04:51:00,61.0,60.7,30.12,North,360,0.0,0.0,99,0.00,CLR,,0.00,WeatherDisplay:10.37,2013-08-21 08:51:00,
2013-08-21 04:56:00,60.9,60.6,30.13,North,360,0.0,0.0,99,0.00,CLR,,0.00,WeatherDisplay:10.37,2013-08-21 08:56:00,
2013-08-21 05:01:00,60.8,60.5,30.13,North,360,0.0,0.0,99,0.00,CLR,,0.00,WeatherDisplay:10.37,2013-08-21 09:01:00,
2013-08-21 05:06:00,60.7,60.4,30.13,North,360,0.0,0.0,99,0.00,CLR,,0.00,WeatherDisplay:10.37,2013-08-21 09:06:00,
2013-08-21 05:12:00,60.5,60.2,30.13,North,360,0.0,0.0,99,0.00,CLR,,0.00,WeatherDisplay:10.37,2013-08-21 09:12:00,
2013-08-21 05:17:00,60.4,60.1,30.14,North,360,0.0,0.0,99,0.00,CLR,,0.00,WeatherDisplay:10.37,2013-08-21 09:17:00,
2013-08-21 05:22:00,60.4,60.1,30.13,North,360,0.0,0.0,99,0.00,CLR,,0.00,WeatherDisplay:10.37,2013-08-21 09:22:00,
2013-08-21 05:27:00,60.3,60.0,30.14,North,360,0.0,0.0,99,0.00,CLR,,0.00,WeatherDisplay:10.37,2013-08-21 09:27:00,
2013-08-21 05:32:00,60.4,60.1,30.14,North,360,0.0,0.0,99,0.00,CLR,,0.00,WeatherDisplay:10.37,2013-08-21 09:32:00,
2013-08-21 05:37:00,60.5,60.2,30.14,North,360,0.0,0.0,99,0.00,CLR,,0.00,WeatherDisplay:10.37,2013-08-21 09:37:00,
2013-08-21 05:42:00,60.6,60.6,30.14,North,360,0.0,0.0,100,0.00,CLR,,0.00,WeatherDisplay:10.37,2013-08-21 09:42:00,
2013-08-21 05:47:00,60.6,60.6,30.14,North,360,0.0,0.0,100,0.00,CLR,,0.00,WeatherDisplay:10.37,2013-08-21 09:47:00,
2013-08-21 05:52:00,60.5,60.2,30.14,North,360,0.0,0.0,99,0.00,CLR,,0.00,WeatherDisplay:10.37,2013-08-21 09:52:00,
2013-08-21 05:57:00,60.4,60.1,30.14,North,360,0.0,0.0,99,0.00,CLR,,0.00,WeatherDisplay:10.37,2013-08-21 09:57:00,
2013-08-21 06:02:00,60.3,60.3,30.14,North,360,0.0,0.0,100,0.00,CLR,,0.00,WeatherDisplay:10.37,2013-08-21 10:02:00,
2013-08-21 06:07:00,60.1,60.1,30.14,North,360,0.0,0.0,100,0.00,CLR,,0.00,WeatherDisplay:10.37,2013-08-21 10:07:00,
2013-08-21 06:12:00,60.1,60.1,30.14,North,360,0.0,0.0,100,0.00,CLR,,0.00,WeatherDisplay:10.37,2013-08-21 10:12:00,
2013-08-21 06:17:00,60.1,60.1,30.15,North,360,0.0,0.0,100,0.00,CLR,,0.00,WeatherDisplay:10.37,2013-08-21 10:17:00,
2013-08-21 06:22:00,60.1,60.1,30.15,North,360,0.0,0.0,100,0.00,CLR,,0.00,WeatherDisplay:10.37,2013-08-21 10:22:00,
2013-08-21 06:27:00,60.1,60.1,30.15,North,360,0.0,0.0,100,0.00,CLR,,0.00,WeatherDisplay:10.37,2013-08-21 10:27:00,
2013-08-21 06:32:00,60.2,60.2,30.15,North,360,0.0,0.0,100,0.00,CLR,,0.00,WeatherDisplay:10.37,2013-08-21 10:32:00,
2013-08-21 06:37:00,60.1,60.1,30.15,North,360,0.0,0.0,100,0.00,CLR,,0.00,WeatherDisplay:10.37,2013-08-21 10:37:00,
2013-08-21 06:42:00,60.1,60.1,30.15,North,360,0.0,0.0,100,0.00,CLR,,0.00,WeatherDisplay:10.37,2013-08-21 10:42:00,
2013-08-21 06:47:00,60.1,60.1,30.15,North,360,0.0,0.0,100,0.00,CLR,,0.00,WeatherDisplay:10.37,2013-08-21 10:47:00,
2013-08-21 06:52:00,60.2,60.2,30.16,North,360,0.0,0.0,100,0.00,CLR,,0.00,WeatherDisplay:10.37,2013-08-21 10:52:00,
2013-08-21 06:57:00,60.4,60.4,30.15,North,360,0.0,0.0,100,0.00,CLR,,0.00,WeatherDisplay:10.37,2013-08-21 10:57:00,
2013-08-21 07:02:00,60.7,60.7,30.15,North,360,0.0,0.0,100,0.00,CLR,,0.00,WeatherDisplay:10.37,2013-08-21 11:02:00,
2013-08-21 07:07:00,61.0,61.0,30.16,North,360,0.0,0.0,100,0.00,CLR,,0.00,WeatherDisplay:10.37,2013-08-21 11:07:00,
2013-08-21 07:12:00,61.3,61.3,30.16,North,360,0.0,0.0,100,0.00,CLR,,0.00,WeatherDisplay:10.37,2013-08-21 11:12:00,
2013-08-21 07:17:00,61.6,61.6,30.16,North,360,0.0,0.0,100,0.00,CLR,,0.00,WeatherDisplay:10.37,2013-08-21 11:17:00,
2013-08-21 07:22:00,61.9,61.9,30.16,North,360,0.0,0.0,100,0.00,CLR,,0.00,WeatherDisplay:10.37,2013-08-21 11:22:00,
2013-08-21 07:27:00,62.1,62.1,30.16,North,360,0.0,0.0,100,0.00,CLR,,0.00,WeatherDisplay:10.37,2013-08-21 11:27:00,
2013-08-21 07:32:00,62.4,62.4,30.16,North,360,0.0,0.0,100,0.00,CLR,,0.00,WeatherDisplay:10.37,2013-08-21 11:32:00,
2013-08-21 07:37:00,62.6,62.6,30.16,North,360,0.0,0.0,100,0.00,CLR,,0.00,WeatherDisplay:10.37,2013-08-21 11:37:00,
2013-08-21 07:42:00,62.9,62.9,30.16,North,360,0.0,0.0,100,0.00,CLR,,0.00,WeatherDisplay:10.37,2013-08-21 11:42:00,
2013-08-21 07:47:00,63.2,63.2,30.16,North,360,0.0,0.0,100,0.00,CLR,,0.00,WeatherDisplay:10.37,2013-08-21 11:47:00,
2013-08-21 07:52:00,63.4,63.4,30.16,North,360,0.0,0.0,100,0.00,CLR,,0.00,WeatherDisplay:10.37,2013-08-21 11:52:00,
2013-08-21 07:57:00,63.8,63.8,30.16,North,360,0.0,0.0,100,0.00,CLR,,0.00,WeatherDisplay:10.37,2013-08-21 11:57:00,
2013-08-21 08:02:00,64.2,64.2,30.16,North,360,1.2,1.2,100,0.00,CLR,,0.00,WeatherDisplay:10.37,2013-08-21 12:02:00,
2013-08-21 08:07:00,64.7,64.7,30.16,North,360,0.0,0.0,100,0.00,CLR,,0.00,WeatherDisplay:10.37,2013-08-21 12:07:00,
2013-08-21 08:12:00,65.1,65.1,30.16,North,360,0.0,0.0,100,0.00,CLR,,0.00,WeatherDisplay:10.37,2013-08-21 12:12:00,
2013-08-21 08:17:00,65.5,65.5,30.16,North,360,2.3,2.3,100,0.00,CLR,,0.00,WeatherDisplay:10.37,2013-08-21 12:17:00,
2013-08-21 08:22:00,66.1,66.1,30.16,North,360,1.2,1.2,100,0.00,CLR,,0.00,WeatherDisplay:10.37,2013-08-21 12:22:00,
2013-08-21 08:27:00,66.9,66.9,30.16,North,360,1.2,1.2,100,0.00,CLR,,0.00,WeatherDisplay:10.37,2013-08-21 12:27:00,
2013-08-21 08:32:00,67.5,67.5,30.16,North,360,2.3,2.3,100,0.00,CLR,,0.00,WeatherDisplay:10.37,2013-08-21 12:32:00,
2013-08-21 08:37:00,68.3,68.0,30.16,North,360,1.2,1.2,99,0.00,CLR,,0.00,WeatherDisplay:10.37,2013-08-21 12:37:00,
2013-08-21 08:42:00,69.2,68.3,30.16,ENE,69,2.0,2.0,97,0.00,CLR,,0.00,WeatherDisplay:10.37,2013-08-21 12:42:00,
2013-08-21 08:47:00,70.2,68.4,30.16,ENE,68,3.5,3.5,94,0.00,CLR,,0.00,WeatherDisplay:10.37,2013-08-21 12:47:00,
2013-08-21 08:52:00,70.9,68.1,30.16,NE,43,2.3,2.3,91,0.00,CLR,,0.00,WeatherDisplay:10.37,2013-08-21 12:52:00,
2013-08-21 08:57:00,72.0,68.6,30.16,NE,43,0.0,0.0,89,0.00,CLR,,0.00,WeatherDisplay:10.37,2013-08-21 12:57:00,
2013-08-21 09:02:00,72.9,68.8,30.16,NNW,342,2.3,2.3,87,0.00,CLR,,0.00,WeatherDisplay:10.37,2013-08-21 13:02:00,
2013-08-21 09:07:00,73.7,68.2,30.16,NNW,348,3.5,3.5,83,0.00,CLR,,0.00,WeatherDisplay:10.37,2013-08-21 13:07:00,
2013-08-21 09:12:00,74.3,68.1,30.16,North,350,2.3,2.3,81,0.00,CLR,,0.00,WeatherDisplay:10.37,2013-08-21 13:12:00,
2013-08-21 09:17:00,75.2,68.6,30.16,North,350,1.2,1.2,80,0.00,CLR,,0.00,WeatherDisplay:10.37,2013-08-21 13:17:00,
2013-08-21 09:22:00,76.2,69.9,30.16,North,350,2.3,2.3,81,0.00,CLR,,0.00,WeatherDisplay:10.37,2013-08-21 13:22:00,
2013-08-21 09:27:00,76.7,68.9,30.16,North,350,0.0,0.0,77,0.00,CLR,,0.00,WeatherDisplay:10.37,2013-08-21 13:27:00,
2013-08-21 09:32:00,77.1,68.9,30.16,North,350,1.2,1.2,76,0.00,CLR,,0.00,WeatherDisplay:10.37,2013-08-21 13:32:00,
2013-08-21 09:37:00,77.3,69.5,30.16,North,350,0.0,0.0,77,0.00,CLR,,0.00,WeatherDisplay:10.37,2013-08-21 13:37:00,
2013-08-21 09:42:00,78.0,70.6,30.16,North,350,1.2,1.2,78,0.00,CLR,,0.00,WeatherDisplay:10.37,2013-08-21 13:42:00,
2013-08-21 09:47:00,78.7,70.5,30.16,North,350,1.2,1.2,76,0.00,CLR,,0.00,WeatherDisplay:10.37,2013-08-21 13:47:00,
2013-08-21 09:52:00,79.3,71.1,30.16,North,350,2.3,2.3,76,0.00,CLR,,0.00,WeatherDisplay:10.37,2013-08-21 13:52:00,
2013-08-21 09:57:00,80.0,70.6,30.16,North,350,1.2,1.2,73,0.00,CLR,,0.00,WeatherDisplay:10.37,2013-08-21 13:57:00,
2013-08-21 10:02:00,80.5,69.4,30.16,North,350,1.2,1.2,69,0.00,CLR,,0.00,WeatherDisplay:10.37,2013-08-21 14:02:00,
2013-08-21 10:07:00,80.8,69.7,30.16,SW,231,3.5,3.5,69,0.00,CLR,,0.00,WeatherDisplay:10.37,2013-08-21 14:07:00,
2013-08-21 10:12:00,81.0,70.3,30.16,SW,231,1.0,0.0,70,0.00,CLR,,0.00,WeatherDisplay:10.37,2013-08-21 14:12:00,
2013-08-21 10:17:00,81.1,70.0,30.16,WSW,246,1.2,1.2,69,0.00,CLR,,0.00,WeatherDisplay:10.37,2013-08-21 14:17:00,
2013-08-21 10:22:00,81.4,71.1,30.16,SW,229,3.5,3.5,71,0.00,CLR,,0.00,WeatherDisplay:10.37,2013-08-21 14:22:00,
2013-08-21 10:27:00,81.6,70.9,30.16,West,266,3.5,3.5,70,0.00,CLR,,0.00,WeatherDisplay:10.37,2013-08-21 14:27:00,
2013-08-21 10:32:00,81.3,68.0,30.16,WNW,282,1.2,0.0,64,0.00,CLR,,0.00,WeatherDisplay:10.37,2013-08-21 14:32:00,
2013-08-21 10:37:00,81.5,69.9,30.15,North,5,3.5,3.5,68,0.00,CLR,,0.00,WeatherDisplay:10.37,2013-08-21 14:37:00,
2013-08-21 10:42:00,81.9,69.4,30.15,North,5,0.0,0.0,66,0.00,CLR,,0.00,WeatherDisplay:10.37,2013-08-21 14:42:00,
2013-08-21 10:47:00,82.5,69.5,30.16,NW,313,2.3,2.3,65,0.00,CLR,,0.00,WeatherDisplay:10.37,2013-08-21 14:47:00,
2013-08-21 10:52:00,83.0,69.1,30.16,NNW,338,3.5,3.5,63,0.00,CLR,,0.00,WeatherDisplay:10.37,2013-08-21 14:52:00,
2013-08-21 10:57:00,83.1,68.7,30.15,SSW,213,6.9,6.9,62,0.00,CLR,,0.00,WeatherDisplay:10.37,2013-08-21 14:57:00,
2013-08-21 11:02:00,82.9,69.5,30.15,North,5,3.5,3.5,64,0.00,CLR,,0.00,WeatherDisplay:10.37,2013-08-21 15:02:00,
2013-08-21 11:07:00,83.1,68.7,30.15,NNW,330,3.5,3.5,62,0.00,CLR,,0.00,WeatherDisplay:10.37,2013-08-21 15:07:00,
2013-08-21 11:12:00,83.1,68.7,30.16,NNW,335,4.6,4.6,62,0.00,CLR,,0.00,WeatherDisplay:10.37,2013-08-21 15:12:00,
2013-08-21 11:17:00,83.4,71.7,30.16,SW,222,4.6,4.6,68,0.00,CLR,,0.00,WeatherDisplay:10.37,2013-08-21 15:17:00,
2013-08-21 11:22:00,83.6,68.2,30.16,West,281,3.5,3.5,60,0.00,CLR,,0.00,WeatherDisplay:10.37,2013-08-21 15:22:00,
2013-08-21 11:27:00,83.6,69.2,30.16,NW,305,2.3,2.3,62,0.00,CLR,,0.00,WeatherDisplay:10.37,2013-08-21 15:27:00,
2013-08-21 11:32:00,83.9,68.5,30.15,SSW,211,3.5,3.5,60,0.00,CLR,,0.00,WeatherDisplay:10.37,2013-08-21 15:32:00,
2013-08-21 11:37:00,84.1,69.7,30.15,NW,325,3.5,3.5,62,0.00,CLR,,0.00,WeatherDisplay:10.37,2013-08-21 15:37:00,
2013-08-21 11:42:00,84.3,67.9,30.15,South,177,3.5,3.5,58,0.00,CLR,,0.00,WeatherDisplay:10.37,2013-08-21 15:42:00,
2013-08-21 11:47:00,84.3,67.9,30.15,South,190,4.6,4.6,58,0.00,CLR,,0.00,WeatherDisplay:10.37,2013-08-21 15:47:00,
2013-08-21 11:52:00,84.4,67.5,30.15,SSW,210,3.5,3.5,57,0.00,CLR,,0.00,WeatherDisplay:10.37,2013-08-21 15:52:00,
2013-08-21 11:57:00,84.5,68.1,30.15,West,278,3.5,3.5,58,0.00,CLR,,0.00,WeatherDisplay:10.37,2013-08-21 15:57:00,
2013-08-21 12:02:00,84.7,67.3,30.15,SW,224,3.5,3.5,56,0.00,CLR,,0.00,WeatherDisplay:10.37,2013-08-21 16:02:00,
2013-08-21 12:07:00,84.8,67.9,30.15,SW,227,4.6,4.6,57,0.00,CLR,,0.00,WeatherDisplay:10.37,2013-08-21 16:07:00,
2013-08-21 12:12:00,84.9,68.5,30.14,NNE,28,3.0,3.0,58,0.00,CLR,,0.00,WeatherDisplay:10.37,2013-08-21 16:12:00,
2013-08-21 12:17:00,85.2,67.7,30.14,South,175,3.5,3.5,56,0.00,CLR,,0.00,WeatherDisplay:10.37,2013-08-21 16:17:00,
2013-08-21 12:22:00,85.1,68.2,30.14,SW,232,4.6,4.6,57,0.00,CLR,,0.00,WeatherDisplay:10.37,2013-08-21 16:22:00,
2013-08-21 12:27:00,85.1,67.1,30.14,SSW,207,2.3,0.0,55,0.00,CLR,,0.00,WeatherDisplay:10.37,2013-08-21 16:27:00,
2013-08-21 12:32:00,85.2,68.8,30.13,SSE,166,0.0,0.0,58,0.00,CLR,,0.00,WeatherDisplay:10.37,2013-08-21 16:32:00,
2013-08-21 12:37:00,85.4,68.4,30.13,WNW,292,3.5,3.5,57,0.00,CLR,,0.00,WeatherDisplay:10.37,2013-08-21 16:37:00,
2013-08-21 12:42:00,85.5,68.5,30.13,South,187,1.0,1.0,57,0.00,CLR,,0.00,WeatherDisplay:10.37,2013-08-21 16:42:00,
2013-08-21 12:47:00,85.7,67.7,30.13,SSW,205,3.5,3.5,55,0.00,CLR,,0.00,WeatherDisplay:10.37,2013-08-21 16:47:00,
2013-08-21 12:52:00,85.8,68.3,30.13,SW,219,0.0,0.4,56,0.00,CLR,,0.00,WeatherDisplay:10.37,2013-08-21 16:52:00,
2013-08-21 12:57:00,86.0,68.5,30.13,WNW,292,6.9,6.9,56,0.00,CLR,,0.00,WeatherDisplay:10.37,2013-08-21 16:57:00,
2013-08-21 13:02:00,86.1,68.6,30.13,WNW,300,2.3,2.3,56,0.00,CLR,,0.00,WeatherDisplay:10.37,2013-08-21 17:02:00,
2013-08-21 13:07:00,86.1,68.0,30.13,NW,308,2.3,2.3,55,0.00,CLR,,0.00,WeatherDisplay:10.37,2013-08-21 17:07:00,
2013-08-21 13:12:00,86.3,68.2,30.13,NW,308,2.3,0.0,55,0.00,CLR,,0.00,WeatherDisplay:10.37,2013-08-21 17:12:00,
2013-08-21 13:17:00,86.6,69.0,30.12,SSE,166,2.3,2.3,56,0.00,CLR,,0.00,WeatherDisplay:10.37,2013-08-21 17:17:00,
2013-08-21 13:22:00,86.8,69.7,30.12,SE,144,5.0,5.0,57,0.00,CLR,,0.00,WeatherDisplay:10.37,2013-08-21 17:22:00,
2013-08-21 13:27:00,86.9,69.3,30.12,NW,313,6.9,6.9,56,0.00,CLR,,0.00,WeatherDisplay:10.37,2013-08-21 17:27:00,
2013-08-21 13:32:00,86.8,69.2,30.12,West,264,3.5,3.5,56,0.00,CLR,,0.00,WeatherDisplay:10.37,2013-08-21 17:32:00,
2013-08-21 13:37:00,86.8,69.2,30.11,SE,135,2.3,2.3,56,0.00,CLR,,0.00,WeatherDisplay:10.37,2013-08-21 17:37:00,
2013-08-21 13:42:00,86.8,68.2,30.11,SSW,205,4.6,4.6,54,0.00,CLR,,0.00,WeatherDisplay:10.37,2013-08-21 17:42:00,
2013-08-21 13:47:00,86.6,68.0,30.11,NW,316,3.5,3.5,54,0.00,CLR,,0.00,WeatherDisplay:10.37,2013-08-21 17:47:00,
2013-08-21 13:52:00,86.6,69.0,30.11,SSW,213,1.2,1.2,56,0.00,CLR,,0.00,WeatherDisplay:10.37,2013-08-21 17:52:00,
2013-08-21 13:57:00,86.9,68.8,30.11,NW,310,10.4,10.4,55,0.00,CLR,,0.00,WeatherDisplay:10.37,2013-08-21 17:57:00,
2013-08-21 14:02:00,86.6,69.0,30.11,NW,309,4.6,4.6,56,0.00,CLR,,0.00,WeatherDisplay:10.37,2013-08-21 18:02:00,
2013-08-21 14:07:00,86.6,68.5,30.11,South,184,6.9,6.9,55,0.00,CLR,,0.00,WeatherDisplay:10.37,2013-08-21 18:07:00,
2013-08-21 14:12:00,86.8,69.2,30.11,SSE,163,2.3,2.3,56,0.00,CLR,,0.00,WeatherDisplay:10.37,2013-08-21 18:12:00,
2013-08-21 14:17:00,87.1,68.4,30.10,SSW,207,3.5,3.5,54,0.00,CLR,,0.00,WeatherDisplay:10.37,2013-08-21 18:17:00,
2013-08-21 14:22:00,87.4,68.7,30.10,WNW,284,3.5,3.5,54,0.00,CLR,,0.00,WeatherDisplay:10.37,2013-08-21 18:22:00,
2013-08-21 14:27:00,87.7,68.4,30.10,SE,146,3.5,3.5,53,0.00,CLR,,0.00,WeatherDisplay:10.37,2013-08-21 18:27:00,
2013-08-21 14:32:00,87.9,69.2,30.10,SW,235,2.3,2.3,54,0.00,CLR,,0.00,WeatherDisplay:10.37,2013-08-21 18:32:00,
2013-08-21 14:37:00,88.2,68.4,30.10,SSW,202,3.5,3.5,52,0.00,CLR,,0.00,WeatherDisplay:10.37,2013-08-21 18:37:00,
2013-08-21 14:42:00,88.2,68.9,30.09,SSW,205,1.2,1.2,53,0.00,CLR,,0.00,WeatherDisplay:10.37,2013-08-21 18:42:00,
2013-08-21 14:47:00,88.1,68.8,30.09,West,281,4.0,4.0,53,0.00,CLR,,0.00,WeatherDisplay:10.37,2013-08-21 18:47:00,
2013-08-21 14:52:00,88.2,67.8,30.09,South,190,6.9,6.9,51,0.00,CLR,,0.00,WeatherDisplay:10.37,2013-08-21 18:52:00,
2013-08-21 14:57:00,87.9,66.9,30.09,South,178,3.5,3.5,50,0.00,CLR,,0.00,WeatherDisplay:10.37,2013-08-21 18:57:00,
2013-08-21 15:02:00,87.9,66.9,30.09,SW,235,0.0,0.1,50,0.00,CLR,,0.00,WeatherDisplay:10.37,2013-08-21 19:02:00,
2013-08-21 15:07:00,88.2,67.8,30.09,SSE,161,7.0,7.0,51,0.00,CLR,,0.00,WeatherDisplay:10.37,2013-08-21 19:07:00,
2013-08-21 15:12:00,87.9,68.1,30.09,South,184,0.0,0.0,52,0.00,CLR,,0.00,WeatherDisplay:10.37,2013-08-21 19:12:00,
2013-08-21 15:17:00,88.1,67.1,30.09,SSW,208,8.1,8.1,50,0.00,CLR,,0.00,WeatherDisplay:10.37,2013-08-21 19:17:00,
2013-08-21 15:22:00,87.9,67.5,30.09,South,181,7.0,7.0,51,0.00,CLR,,0.00,WeatherDisplay:10.37,2013-08-21 19:22:00,
2013-08-21 15:27:00,87.7,67.3,30.08,SSW,209,4.0,4.0,51,0.00,CLR,,0.00,WeatherDisplay:10.37,2013-08-21 19:27:00,
2013-08-21 15:32:00,87.7,67.9,30.08,South,174,1.2,1.2,52,0.00,CLR,,0.00,WeatherDisplay:10.37,2013-08-21 19:32:00,
2013-08-21 15:37:00,87.9,67.5,30.08,NNW,340,4.6,4.6,51,0.00,CLR,,0.00,WeatherDisplay:10.37,2013-08-21 19:37:00,
2013-08-21 15:43:00,88.2,67.8,30.08,SW,223,0.0,0.0,51,0.00,CLR,,0.00,WeatherDisplay:10.37,2013-08-21 19:43:00,
2013-08-21 15:48:00,88.4,67.4,30.08,SSW,198,4.0,4.0,50,0.00,CLR,,0.00,WeatherDisplay:10.37,2013-08-21 19:48:00,
2013-08-21 15:53:00,88.3,69.0,30.08,SSW,192,11.0,11.0,53,0.00,CLR,,0.00,WeatherDisplay:10.37,2013-08-21 19:53:00,
2013-08-21 15:58:00,88.0,67.0,30.07,WNW,291,2.3,2.3,50,0.00,CLR,,0.00,WeatherDisplay:10.37,2013-08-21 19:58:00,
2013-08-21 16:03:00,88.1,69.4,30.07,WSW,242,3.0,3.0,54,0.00,CLR,,0.00,WeatherDisplay:10.37,2013-08-21 20:03:00,
2013-08-21 16:08:00,88.1,67.7,30.07,ESE,121,6.9,6.9,51,0.00,CLR,,0.00,WeatherDisplay:10.37,2013-08-21 20:08:00,
2013-08-21 16:13:00,88.0,68.7,30.07,SW,216,3.5,3.5,53,0.00,CLR,,0.00,WeatherDisplay:10.37,2013-08-21 20:13:00,
2013-08-21 16:18:00,88.0,68.7,30.07,SSW,206,2.3,2.3,53,0.00,CLR,,0.00,WeatherDisplay:10.37,2013-08-21 20:18:00,
2013-08-21 16:23:00,88.1,68.3,30.07,SSW,206,3.5,3.5,52,0.00,CLR,,0.00,WeatherDisplay:10.37,2013-08-21 20:23:00,
2013-08-21 16:28:00,88.0,69.3,30.06,South,172,5.8,5.8,54,0.00,CLR,,0.00,WeatherDisplay:10.37,2013-08-21 20:28:00,
2013-08-21 16:33:00,87.9,68.6,30.06,NW,307,3.0,3.0,53,0.00,CLR,,0.00,WeatherDisplay:10.37,2013-08-21 20:33:00,
2013-08-21 16:38:00,87.8,68.5,30.07,NNW,343,6.9,6.9,53,0.00,CLR,,0.00,WeatherDisplay:10.37,2013-08-21 20:38:00,
2013-08-21 16:43:00,87.7,68.4,30.07,SSW,211,5.8,5.8,53,0.00,CLR,,0.00,WeatherDisplay:10.37,2013-08-21 20:43:00,
2013-08-21 16:48:00,87.6,68.4,30.07,South,178,4.0,4.0,53,0.00,CLR,,0.00,WeatherDisplay:10.37,2013-08-21 20:48:00,
2013-08-21 16:54:00,87.5,68.3,30.06,WSW,242,2.3,2.3,53,0.00,CLR,,0.00,WeatherDisplay:10.37,2013-08-21 20:54:00,
2013-08-21 16:59:00,87.4,68.7,30.06,NW,316,1.2,0.0,54,0.00,CLR,,0.00,WeatherDisplay:10.37,2013-08-21 20:59:00,
2013-08-21 17:04:00,87.2,69.1,30.06,WSW,240,1.2,1.2,55,0.00,FEW,,0.00,WeatherDisplay:10.37,2013-08-21 21:04:00,
2013-08-21 17:09:00,87.0,67.8,30.06,SSW,202,3.5,3.5,53,0.00,FEW,,0.00,WeatherDisplay:10.37,2013-08-21 21:09:00,
2013-08-21 17:14:00,86.6,68.0,30.06,NW,307,1.2,1.2,54,0.00,FEW,,0.00,WeatherDisplay:10.37,2013-08-21 21:14:00,
2013-08-21 17:19:00,86.3,68.2,30.06,SW,234,5.8,5.8,55,0.00,FEW,,0.00,WeatherDisplay:10.37,2013-08-21 21:19:00,
2013-08-21 17:24:00,86.1,68.0,30.06,SSE,152,3.5,3.5,55,0.00,FEW,,0.00,WeatherDisplay:10.37,2013-08-21 21:24:00,
2013-08-21 17:29:00,85.9,67.9,30.05,SW,225,1.2,0.0,55,0.00,FEW,,0.00,WeatherDisplay:10.37,2013-08-21 21:29:00,
2013-08-21 17:34:00,85.8,67.8,30.05,SW,225,2.3,2.3,55,0.00,FEW,,0.00,WeatherDisplay:10.37,2013-08-21 21:34:00,
2013-08-21 17:39:00,85.7,68.7,30.05,WNW,300,4.6,4.6,57,0.00,FEW,,0.00,WeatherDisplay:10.37,2013-08-21 21:39:00,
2013-08-21 17:44:00,85.6,69.6,30.05,NE,48,3.5,3.5,59,0.00,FEW,,0.00,WeatherDisplay:10.37,2013-08-21 21:44:00,
2013-08-21 17:49:00,85.5,69.0,30.05,North,355,3.0,3.0,58,0.00,FEW,,0.00,WeatherDisplay:10.37,2013-08-21 21:49:00,
2013-08-21 17:54:00,85.3,67.8,30.05,North,360,1.2,0.0,56,0.00,FEW,,0.00,WeatherDisplay:10.37,2013-08-21 21:54:00,
2013-08-21 17:59:00,85.2,68.2,30.05,NW,313,1.2,1.2,57,0.00,FEW,,0.00,WeatherDisplay:10.37,2013-08-21 21:59:00,
2013-08-21 18:04:00,85.0,67.5,30.05,NW,324,3.5,3.5,56,0.00,FEW,,0.00,WeatherDisplay:10.37,2013-08-21 22:04:00,
2013-08-21 18:09:00,84.8,67.9,30.05,WNW,282,2.3,2.3,57,0.00,FEW,,0.00,WeatherDisplay:10.37,2013-08-21 22:09:00,
2013-08-21 18:14:00,84.6,67.7,30.04,NW,306,4.0,4.0,57,0.00,FEW,,0.00,WeatherDisplay:10.37,2013-08-21 22:14:00,
2013-08-21 18:19:00,84.5,69.1,30.04,NW,313,0.0,0.0,60,0.00,FEW,,0.00,WeatherDisplay:10.37,2013-08-21 22:19:00,
2013-08-21 18:24:00,84.3,68.4,30.04,NW,313,0.0,0.0,59,0.00,FEW,,0.00,WeatherDisplay:10.37,2013-08-21 22:24:00,
2013-08-21 18:29:00,83.9,68.5,30.04,NW,313,0.0,0.0,60,0.00,FEW,,0.00,WeatherDisplay:10.37,2013-08-21 22:29:00,
2013-08-21 18:34:00,83.4,69.9,30.04,NW,313,0.0,0.0,64,0.00,FEW,,0.00,WeatherDisplay:10.37,2013-08-21 22:34:00,
2013-08-21 18:39:00,82.9,69.9,30.04,NW,313,0.0,0.0,65,0.00,FEW,,0.00,WeatherDisplay:10.37,2013-08-21 22:39:00,
2013-08-21 18:44:00,82.4,70.8,30.04,NW,313,0.0,0.0,68,0.00,FEW,,0.00,WeatherDisplay:10.37,2013-08-21 22:44:00,
2013-08-21 18:49:00,81.8,69.8,30.04,NW,313,0.0,0.0,67,0.00,FEW,,0.00,WeatherDisplay:10.37,2013-08-21 22:49:00,
2013-08-21 18:54:00,81.2,70.1,30.05,NW,313,0.0,0.0,69,0.00,FEW,,0.00,WeatherDisplay:10.37,2013-08-21 22:54:00,
2013-08-21 18:59:00,80.7,69.6,30.04,NW,313,0.0,0.0,69,0.00,FEW,,0.00,WeatherDisplay:10.37,2013-08-21 22:59:00,
2013-08-21 19:04:00,80.2,69.9,30.05,NW,313,0.0,0.0,71,0.00,FEW,,0.00,WeatherDisplay:10.37,2013-08-21 23:04:00,
2013-08-21 19:09:00,79.8,70.4,30.04,NW,313,0.0,0.0,73,0.00,FEW,,0.00,WeatherDisplay:10.37,2013-08-21 23:09:00,
2013-08-21 19:14:00,79.4,70.4,30.04,NW,313,0.0,0.0,74,0.00,FEW,,0.00,WeatherDisplay:10.37,2013-08-21 23:14:00,
2013-08-21 19:19:00,78.9,69.9,30.05,NW,313,1.2,0.0,74,0.00,FEW,,0.00,WeatherDisplay:10.37,2013-08-21 23:19:00,
2013-08-21 19:24:00,78.5,69.5,30.04,NW,313,0.0,0.0,74,0.00,FEW,,0.00,WeatherDisplay:10.37,2013-08-21 23:24:00,
2013-08-21 19:29:00,78.0,69.4,30.05,NW,313,0.0,0.0,75,0.00,FEW,,0.00,WeatherDisplay:10.37,2013-08-21 23:29:00,
2013-08-21 19:34:00,77.6,69.4,30.05,NW,313,0.0,0.0,76,0.00,FEW,,0.00,WeatherDisplay:10.37,2013-08-21 23:34:00,
2013-08-21 19:39:00,77.2,69.4,30.05,NW,313,0.0,0.0,77,0.00,FEW,,0.00,WeatherDisplay:10.37,2013-08-21 23:39:00,
2013-08-21 19:44:00,76.7,69.3,30.05,NW,313,0.0,0.0,78,0.00,FEW,,0.00,WeatherDisplay:10.37,2013-08-21 23:44:00,
2013-08-21 19:49:00,76.2,68.8,30.04,NW,313,0.0,0.0,78,0.00,FEW,,0.00,WeatherDisplay:10.37,2013-08-21 23:49:00,
2013-08-21 19:54:00,75.7,68.4,30.05,NW,313,0.0,0.0,78,0.00,FEW,,0.00,WeatherDisplay:10.37,2013-08-21 23:54:00,
2013-08-21 19:59:00,75.1,67.8,30.05,NW,313,0.0,0.0,78,0.00,FEW,,0.00,WeatherDisplay:10.37,2013-08-21 23:59:00,
2013-08-21 20:04:00,74.7,68.1,30.05,NW,313,0.0,0.0,80,0.00,CLR,,0.00,WeatherDisplay:10.37,2013-08-22 00:04:00,
2013-08-21 20:09:00,74.3,67.7,30.05,NW,313,0.0,0.0,80,0.00,CLR,,0.00,WeatherDisplay:10.37,2013-08-22 00:09:00,
2013-08-21 20:14:00,73.9,67.7,30.05,NW,313,0.0,0.0,81,0.00,CLR,,0.00,WeatherDisplay:10.37,2013-08-22 00:14:00,
2013-08-21 20:19:00,73.5,67.3,30.05,NW,313,0.0,0.0,81,0.00,CLR,,0.00,WeatherDisplay:10.37,2013-08-22 00:19:00,
2013-08-21 20:24:00,73.1,67.3,30.05,NW,313,0.0,0.0,82,0.00,CLR,,0.00,WeatherDisplay:10.37,2013-08-22 00:24:00,
2013-08-21 20:29:00,72.8,67.0,30.05,NW,313,0.0,0.0,82,0.00,CLR,,0.00,WeatherDisplay:10.37,2013-08-22 00:29:00,
2013-08-21 20:34:00,72.4,66.9,30.05,NW,313,0.0,0.0,83,0.00,CLR,,0.00,WeatherDisplay:10.37,2013-08-22 00:34:00,
2013-08-21 20:39:00,72.1,66.6,30.05,NW,313,0.0,0.0,83,0.00,CLR,,0.00,WeatherDisplay:10.37,2013-08-22 00:39:00,
2013-08-21 20:44:00,71.8,66.7,30.05,NW,313,0.0,0.0,84,0.00,CLR,,0.00,WeatherDisplay:10.37,2013-08-22 00:44:00,
2013-08-21 20:49:00,71.5,66.8,30.05,NW,313,0.0,0.0,85,0.00,CLR,,0.00,WeatherDisplay:10.37,2013-08-22 00:49:00,
2013-08-21 20:54:00,71.3,66.6,30.05,NW,313,0.0,0.0,85,0.00,CLR,,0.00,WeatherDisplay:10.37,2013-08-22 00:54:00,
2013-08-21 20:59:00,71.0,66.6,30.05,NW,313,0.0,0.0,86,0.00,CLR,,0.00,WeatherDisplay:10.37,2013-08-22 00:59:00,
2013-08-21 21:04:00,70.7,66.3,30.06,NW,313,0.0,0.0,86,0.00,CLR,,0.00,WeatherDisplay:10.37,2013-08-22 01:04:00,
2013-08-21 21:09:00,70.5,66.4,30.06,NW,313,0.0,0.0,87,0.00,CLR,,0.00,WeatherDisplay:10.37,2013-08-22 01:09:00,
2013-08-21 21:14:00,70.2,66.1,30.06,NW,313,0.0,0.0,87,0.00,CLR,,0.00,WeatherDisplay:10.37,2013-08-22 01:14:00,
2013-08-21 21:19:00,70.0,66.3,30.06,NW,313,0.0,0.0,88,0.00,CLR,,0.00,WeatherDisplay:10.37,2013-08-22 01:19:00,
2013-08-21 21:24:00,69.8,66.1,30.06,NW,313,0.0,0.0,88,0.00,CLR,,0.00,WeatherDisplay:10.37,2013-08-22 01:24:00,
2013-08-21 21:29:00,69.6,66.2,30.06,NW,313,0.0,0.0,89,0.00,CLR,,0.00,WeatherDisplay:10.37,2013-08-22 01:29:00,
2013-08-21 21:34:00,69.4,66.0,30.06,NW,313,0.0,0.0,89,0.00,CLR,,0.00,WeatherDisplay:10.37,2013-08-22 01:34:00,
2013-08-21 21:39:00,69.2,65.8,30.06,NW,313,0.0,0.0,89,0.00,CLR,,0.00,WeatherDisplay:10.37,2013-08-22 01:39:00,
2013-08-21 21:44:00,69.0,65.6,30.06,NW,313,0.0,0.0,89,0.00,CLR,,0.00,WeatherDisplay:10.37,2013-08-22 01:44:00,
2013-08-21 21:49:00,68.9,65.8,30.06,NW,313,0.0,0.0,90,0.00,CLR,,0.00,WeatherDisplay:10.37,2013-08-22 01:49:00,
2013-08-21 21:54:00,68.8,66.1,30.06,NW,313,0.0,0.0,91,0.00,CLR,,0.00,WeatherDisplay:10.37,2013-08-22 01:54:00,
2013-08-21 21:59:00,68.6,65.9,30.06,NW,313,0.0,0.0,91,0.00,CLR,,0.00,WeatherDisplay:10.37,2013-08-22 01:59:00,
2013-08-21 22:04:00,68.5,65.8,30.07,NW,313,0.0,0.0,91,0.00,CLR,,0.00,WeatherDisplay:10.37,2013-08-22 02:04:00,
2013-08-21 22:09:00,68.3,65.6,30.07,NW,313,0.0,0.0,91,0.00,CLR,,0.00,WeatherDisplay:10.37,2013-08-22 02:09:00,
2013-08-21 22:14:00,68.2,65.8,30.06,NW,313,0.0,0.0,92,0.00,CLR,,0.00,WeatherDisplay:10.37,2013-08-22 02:14:00,
2013-08-21 22:19:00,68.1,65.7,30.06,NW,313,0.0,0.0,92,0.00,CLR,,0.00,WeatherDisplay:10.37,2013-08-22 02:19:00,
2013-08-21 22:24:00,68.0,65.9,30.06,NW,313,0.0,0.0,93,0.00,CLR,,0.00,WeatherDisplay:10.37,2013-08-22 02:24:00,
2013-08-21 22:29:00,67.9,65.8,30.06,NW,313,0.0,0.0,93,0.00,CLR,,0.00,WeatherDisplay:10.37,2013-08-22 02:29:00,
2013-08-21 22:34:00,67.7,65.6,30.06,NW,313,0.0,0.0,93,0.00,CLR,,0.00,WeatherDisplay:10.37,2013-08-22 02:34:00,
2013-08-21 22:39:00,67.6,65.5,30.06,NW,313,0.0,0.0,93,0.00,CLR,,0.00,WeatherDisplay:10.37,2013-08-22 02:39:00,
2013-08-21 22:44:00,67.5,65.7,30.06,NW,313,0.0,0.0,94,0.00,CLR,,0.00,WeatherDisplay:10.37,2013-08-22 02:44:00,
2013-08-21 22:49:00,67.3,65.5,30.05,NW,313,0.0,0.0,94,0.00,CLR,,0.00,WeatherDisplay:10.37,2013-08-22 02:49:00,
2013-08-21 22:54:00,67.2,65.4,30.05,NW,313,0.0,0.0,94,0.00,CLR,,0.00,WeatherDisplay:10.37,2013-08-22 02:54:00,
2013-08-21 22:59:00,67.1,65.3,30.05,NW,313,0.0,0.0,94,0.00,CLR,,0.00,WeatherDisplay:10.37,2013-08-22 02:59:00,
2013-08-21 23:04:00,66.9,65.1,30.04,NW,313,0.0,0.0,94,0.00,CLR,,0.00,WeatherDisplay:10.37,2013-08-22 03:04:00,
2013-08-21 23:09:00,66.8,65.0,30.04,NW,313,0.0,0.0,94,0.00,CLR,,0.00,WeatherDisplay:10.37,2013-08-22 03:09:00,
2013-08-21 23:14:00,66.7,65.2,30.04,NW,313,0.0,0.0,95,0.00,CLR,,0.00,WeatherDisplay:10.37,2013-08-22 03:14:00,
2013-08-21 23:19:00,66.7,65.2,30.04,NW,313,0.0,0.0,95,0.00,CLR,,0.00,WeatherDisplay:10.37,2013-08-22 03:19:00,
2013-08-21 23:24:00,66.6,65.1,30.04,NW,313,0.0,0.0,95,0.00,CLR,,0.00,WeatherDisplay:10.37,2013-08-22 03:24:00,
2013-08-21 23:29:00,66.6,65.1,30.03,NW,313,0.0,0.0,95,0.00,CLR,,0.00,WeatherDisplay:10.37,2013-08-22 03:29:00,
2013-08-21 23:34:00,66.6,65.4,30.03,NW,313,0.0,0.0,96,0.00,CLR,,0.00,WeatherDisplay:10.37,2013-08-22 03:34:00,
2013-08-21 23:39:00,66.5,65.3,30.03,NW,313,0.0,0.0,96,0.00,CLR,,0.00,WeatherDisplay:10.37,2013-08-22 03:39:00,
2013-08-21 23:44:00,66.4,65.2,30.03,NW,313,0.0,0.0,96,0.00,CLR,,0.00,WeatherDisplay:10.37,2013-08-22 03:44:00,
2013-08-21 23:49:00,66.4,65.2,30.03,NW,313,0.0,0.0,96,0.00,CLR,,0.00,WeatherDisplay:10.37,2013-08-22 03:49:00,
2013-08-21 23:54:00,66.3,65.1,30.03,NW,313,0.0,0.0,96,0.00,CLR,,0.00,WeatherDisplay:10.37,2013-08-22 03:54:00,
2013-08-21 23:59:00,66.3,65.4,30.04,NW,313,0.0,0.0,97,0.00,CLR,,0.00,WeatherDisplay:10.37,2013-08-22 03:59:00,